Weather History for Asheville, NC

Change the Weather History Date:

Wednesday, February 13, 2013

  Actual Average Record
Temperature  
Mean Temperature 45 °F 40 °F  
Max Temperature 55 °F 51 °F 75 °F (1949)
Min Temperature 35 °F 29 °F 2 °F (1905)
Degree Days  
Heating Degree Days 20 25  
Month to date heating degree days 306 339  
Since 1 July heating degree days 2553 2866  
Cooling Degree Days 0 0  
Month to date cooling degree days 0 0  
Year to date cooling degree days 0 0  
Moisture  
Dew Point 37 °F    
Average Humidity 75    
Maximum Humidity 100    
Minimum Humidity 50    
Precipitation  
Precipitation 0.20 in 0.13 in 2.79 in (1984)
Month to date precipitation 1.18 1.72  
Year to date precipitation 9.76 5.39  
Snow  
Snow 0.00 in 0.10 in 6.50 in (1960)
Month to date snowfall T 1.1  
Since 1 July snowfall T 6.2  
Snow Depth 0.00 in    
Sea Level Pressure  
Sea Level Pressure 29.76 in    
Wind  
Wind Speed 8 mph (SSE)    
Max Wind Speed 22 mph    
Max Gust Speed 31 mph    
Visibility 7 miles    
Events Rain    
T = Trace of Precipitation, MM = Missing Value Source: NWS Daily Summary

Daily Weather History Graph

Daily Weather History Graph

Search for Another Location

Airport:

Trip Planner

Search our weather history database for the weather conditions in past years. The results will help you decide how hot, cold, wet, or windy it might be!

Date:

Astronomy

Feb. 13, 2013 Rise Set
Actual Time 7:18 AM EST 6:10 PM EST
Civil Twilight 6:52 AM EST 6:36 PM EST
Nautical Twilight 6:22 AM EST 7:06 PM EST
Astronomical Twilight 5:52 AM EST 7:36 PM EST
Moon 8:57 AM EST (2/13) 10:01 PM EST (2/13)
Length of Visible Light 11h 44m
Length of Day
10h 52m
Waxing Crescent, 13% of the Moon is Illuminated
Feb 13
Waxing Crescent
Feb 17
First Quarter
Feb 25
Full
Mar 4
Last Quarter
Mar 11
New

Hourly Weather History & Observations

Time (EST) Temp. Windchill Dew Point Humidity Pressure Visibility Wind Dir Wind Speed Gust Speed Precip Events Conditions
12:54 AM 39.0 °F 36.8 °F 37.9 °F 96% 29.91 in 4.0 mi West 3.5 mph - 0.16 in Rain Heavy Rain
1:54 AM 39.0 °F - 37.9 °F 96% 29.85 in 10.0 mi Calm Calm - 0.05 in Rain Light Rain
2:54 AM 39.9 °F - 37.0 °F 89% 29.83 in 10.0 mi Calm Calm - 0.00 in   Overcast
3:54 AM 39.0 °F - 37.9 °F 96% 29.80 in 10.0 mi Calm Calm - N/A   Overcast
4:54 AM 39.0 °F 35.7 °F 37.9 °F 96% 29.79 in 10.0 mi SSE 4.6 mph - 0.00 in   Overcast
5:30 AM 39.2 °F 35.9 °F 37.4 °F 93% 29.78 in 9.0 mi SSE 4.6 mph - 0.00 in   Overcast
5:54 AM 39.0 °F 36.8 °F 37.9 °F 96% 29.78 in 10.0 mi SE 3.5 mph - 0.00 in   Overcast
6:54 AM 39.0 °F 36.8 °F 37.9 °F 96% 29.76 in 10.0 mi SSE 3.5 mph - N/A   Overcast
7:09 AM 39.2 °F 35.9 °F 37.4 °F 93% 29.77 in 2.0 mi South 4.6 mph - N/A   Overcast
7:19 AM 39.2 °F 37.0 °F 37.4 °F 93% 29.76 in 2.0 mi SE 3.5 mph - N/A   Overcast
7:38 AM 39.2 °F 34.2 °F 37.4 °F 93% 29.77 in 2.0 mi SSE 6.9 mph - N/A   Overcast
7:54 AM 39.0 °F 35.7 °F 37.9 °F 96% 29.78 in 2.0 mi South 4.6 mph - N/A   Overcast
8:54 AM 39.0 °F 34.8 °F 39.0 °F 100% 29.76 in 2.0 mi South 5.8 mph - N/A   Overcast
9:54 AM 39.0 °F 34.8 °F 39.0 °F 100% 29.74 in 2.0 mi SE 5.8 mph - N/A   Overcast
10:39 AM 39.2 °F 35.9 °F 39.2 °F 100% 29.73 in 2.0 mi SE 4.6 mph - N/A   Overcast
10:54 AM 39.9 °F 36.7 °F 39.0 °F 97% 29.73 in 2.0 mi SSE 4.6 mph - N/A   Overcast
11:04 AM 39.2 °F 37.0 °F 39.2 °F 100% 29.74 in 1.5 mi SSE 3.5 mph - N/A   Overcast
11:29 AM 39.2 °F 35.0 °F 39.2 °F 100% 29.71 in 2.0 mi ESE 5.8 mph - 0.01 in   Overcast
11:51 AM 41.0 °F 38.0 °F 39.2 °F 93% 29.71 in 3.0 mi SE 4.6 mph - 0.01 in   Overcast
11:54 AM 39.9 °F 35.8 °F 39.0 °F 97% 29.71 in 4.0 mi SE 5.8 mph - 0.01 in   Overcast
12:54 PM 42.1 °F 38.4 °F 39.9 °F 92% 29.66 in 10.0 mi SE 5.8 mph - N/A   Overcast
1:27 PM 44.6 °F 41.4 °F 42.8 °F 93% 29.65 in 10.0 mi South 5.8 mph - N/A   Overcast
1:54 PM 46.9 °F - 42.1 °F 83% 29.63 in 10.0 mi SE 4.6 mph - N/A   Overcast
2:37 PM 48.2 °F - 42.8 °F 82% 29.63 in 10.0 mi SSW 9.2 mph - N/A   Scattered Clouds
2:54 PM 48.0 °F - 43.0 °F 83% 29.63 in 10.0 mi SSW 8.1 mph - N/A   Partly Cloudy
3:54 PM 54.0 °F - 35.1 °F 49% 29.62 in 10.0 mi WNW 16.1 mph 27.6 mph N/A   Partly Cloudy
4:54 PM 51.1 °F - 36.0 °F 56% 29.65 in 10.0 mi NW 12.7 mph 23.0 mph N/A   Clear
5:54 PM 46.0 °F 38.3 °F 34.0 °F 63% 29.70 in 10.0 mi NNW 20.7 mph 29.9 mph N/A   Scattered Clouds
6:54 PM 39.9 °F 32.1 °F 34.0 °F 79% 29.79 in 10.0 mi North 13.8 mph 19.6 mph N/A   Scattered Clouds
7:54 PM 37.9 °F 29.6 °F 32.0 °F 79% 29.81 in 10.0 mi NNW 13.8 mph - N/A   Partly Cloudy
8:54 PM 36.0 °F 28.0 °F 30.0 °F 79% 29.84 in 10.0 mi North 11.5 mph 24.2 mph N/A   Partly Cloudy
9:54 PM 35.1 °F 26.4 °F 28.9 °F 78% 29.87 in 10.0 mi North 12.7 mph 23.0 mph N/A   Clear
10:54 PM 35.1 °F 27.9 °F 28.9 °F 78% 29.88 in 10.0 mi NNW 9.2 mph - N/A   Partly Cloudy
11:54 PM 36.0 °F 27.5 °F 28.9 °F 76% 29.90 in 10.0 mi North 12.7 mph - N/A   Mostly Cloudy